This is the latest recevied weather packets stored in our database for station/object XE1E-15. If no packets are shown the sender has not sent any weather packets the latest 10 day(s).
| Time | Temp. | Humidity | Pressure | Rain* | Wind** | Luminosity | Snow |
|---|---|---|---|---|---|---|---|
| 1777424379 | 27.78° C | 18% | 1022.3 hPa | - | - | - | - |
| 1777423418 | 28.33° C | 18% | 1022.1 hPa | - | - | - | - |
| 1777422458 | 28.89° C | 19% | 1022 hPa | - | - | - | - |
| 1777421498 | 28.89° C | 19% | 1021.8 hPa | - | - | - | - |
| 1777420538 | 29.44° C | 20% | 1021.6 hPa | - | - | - | - |
| 1777419578 | 30° C | 19% | 1021.5 hPa | - | - | - | - |
| 1777418618 | 30° C | 19% | 1021.4 hPa | - | - | - | - |
| 1777417658 | 30.56° C | 19% | 1021.3 hPa | - | - | - | - |
| 1777416698 | 31.67° C | 18% | 1021.4 hPa | - | - | - | - |
| 1777415738 | 32.22° C | 17% | 1021.5 hPa | - | - | - | - |
| 1777414778 | 32.22° C | 19% | 1021.5 hPa | - | - | - | - |
| 1777413817 | 32.22° C | 19% | 1021.8 hPa | - | - | - | - |
| 1777412857 | 32.22° C | 18% | 1021.9 hPa | - | - | - | - |
| 1777411897 | 31.11° C | 19% | 1022.1 hPa | - | - | - | - |
| 1777410937 | 31.67° C | 18% | 1022.4 hPa | - | - | - | - |
| 1777409977 | 31.67° C | 18% | 1022.6 hPa | - | - | - | - |
| 1777409017 | 31.67° C | 19% | 1022.8 hPa | - | - | - | - |
| 1777408056 | 31.11° C | 18% | 1023 hPa | - | - | - | - |
| 1777407096 | 31.11° C | 19% | 1023.3 hPa | - | - | - | - |
| 1777406135 | 31.11° C | 19% | 1023.5 hPa | - | - | - | - |
| 1777404695 | 30.56° C | 19% | 1023.9 hPa | - | - | - | - |
| 1777403735 | 31.11° C | 22% | 1024.1 hPa | - | - | - | - |
| 1777402775 | 30.56° C | 23% | 1024.3 hPa | - | - | - | - |
| 1777401815 | 30.56° C | 24% | 1024.6 hPa | - | - | - | - |
| 1777400889 | 30° C | 24% | 1025 hPa | - | - | - | - |
* Rain since midnight (hover to see other rain measurements)
** Current wind speed in m/s (hover to see current wind gust speed)